Tracking 30703 objects as of 14-Jun-2025
HD Live streaming from Space Station
objects crossing your sky now

COSMOS 1275 DEB

Track COSMOS 1275 DEB now!
10-day predictions


NORAD ID: 42101
Int'l Code: 1981-053PM
Perigee: 650.2 km
Apogee: 659.7 km
Inclination: 82.8 °
Period: 97.7 minutes
Semi major axis: 7025 km
RCS: Unknown
Launch date: June 4, 1981
Source: Commonwealth of Independent States (former USSR) (CIS)
Launch site: PLESETSK MISSILE AND SPACE COMPLEX (PKMTR)

Note: This is SATELLITE DEBRIS
Your satellite tracking list
Your tracking list is empty




NASA's NSSDC Master Catalog

Two Line Element Set (TLE):
1 42101U 81053PM  25161.87967855  .00011219  00000-0  16957-2 0  9999
2 42101  82.7663 224.2475 0006785 157.0606 203.0909 14.74165354 67061
Source of the keplerian elements: AFSPC